BIROS

Last updated on Thu Jan 22 2026 00:02:30 GMT+0000 (Coordinated Universal Time)

1 41604U 16040F 26020.83936716 .02834937 22716-5 85715-3 0 9997 2 41604 97.0544 59.5278 0002167 251.7430 108.3628 16.26989936534986

Satellite not in orbit

BIROS